Time,TemperatureF,DewpointF,PressureIn,WindDirection,WindDirectionDegrees,WindSpeedMPH,WindSpeedGustMPH,Humidity,HourlyPrecipIn,Conditions,Clouds,dailyrainin,SolarRadiationWatts/m^2,SoftwareType,DateUTC
2013-07-15 00:03:00,73.0,70.0,30.10,SE,132,0.0,-999.0,89,-99.99,,,0.00,0,weatherlink.com 1.10,2013-07-15 05:03:00,
2013-07-15 00:18:00,72.5,69.0,30.10,ESE,123,0.0,-999.0,89,-99.99,,,0.00,0,weatherlink.com 1.10,2013-07-15 05:18:00,
2013-07-15 00:33:00,72.1,69.0,30.10,ESE,123,0.0,-999.0,89,-99.99,,,0.00,0,weatherlink.com 1.10,2013-07-15 05:33:00,
2013-07-15 00:48:00,71.5,69.0,30.11,ESE,123,0.0,-999.0,90,-99.99,,,0.00,0,weatherlink.com 1.10,2013-07-15 05:48:00,
2013-07-15 01:03:00,72.1,69.0,30.11,ENE,78,1.0,-999.0,91,-99.99,,,0.00,0,weatherlink.com 1.10,2013-07-15 06:03:00,
2013-07-15 01:18:00,72.1,69.0,30.11,ENE,62,1.0,-999.0,90,-99.99,,,0.00,0,weatherlink.com 1.10,2013-07-15 06:18:00,
2013-07-15 01:33:00,71.8,69.0,30.11,ENE,61,0.0,-999.0,90,-99.99,,,0.00,0,weatherlink.com 1.10,2013-07-15 06:33:00,
2013-07-15 01:48:00,71.1,68.0,30.12,ENE,61,0.0,-999.0,90,-99.99,,,0.00,0,weatherlink.com 1.10,2013-07-15 06:48:00,
2013-07-15 02:03:00,70.8,68.0,30.12,ENE,61,0.0,-999.0,90,-99.99,,,0.00,0,weatherlink.com 1.10,2013-07-15 07:03:00,
2013-07-15 02:18:00,70.4,68.0,30.12,ENE,62,0.0,-999.0,91,-99.99,,,0.00,0,weatherlink.com 1.10,2013-07-15 07:18:00,
2013-07-15 02:33:00,70.1,68.0,30.12,ENE,62,0.0,-999.0,92,-99.99,,,0.00,0,weatherlink.com 1.10,2013-07-15 07:33:00,
2013-07-15 02:48:00,70.4,68.0,30.12,ENE,60,0.0,-999.0,92,-99.99,,,0.00,0,weatherlink.com 1.10,2013-07-15 07:48:00,
2013-07-15 03:03:00,70.1,68.0,30.12,ENE,59,2.0,-999.0,92,-99.99,,,0.00,0,weatherlink.com 1.10,2013-07-15 08:03:00,
2013-07-15 03:18:00,69.4,67.0,30.12,ENE,61,0.0,-999.0,93,-99.99,,,0.00,0,weatherlink.com 1.10,2013-07-15 08:18:00,
2013-07-15 03:33:00,69.4,67.0,30.12,ENE,57,1.0,-999.0,93,-99.99,,,0.00,0,weatherlink.com 1.10,2013-07-15 08:33:00,
2013-07-15 03:48:00,69.1,67.0,30.12,ENE,57,0.0,-999.0,93,-99.99,,,0.00,0,weatherlink.com 1.10,2013-07-15 08:48:00,
2013-07-15 04:03:00,68.9,67.0,30.12,ENE,57,0.0,-999.0,93,-99.99,,,0.00,0,weatherlink.com 1.10,2013-07-15 09:03:00,
2013-07-15 04:18:00,68.8,67.0,30.12,ENE,57,0.0,-999.0,93,-99.99,,,0.00,0,weatherlink.com 1.10,2013-07-15 09:18:00,
2013-07-15 04:33:00,69.1,67.0,30.13,ENE,57,0.0,-999.0,94,-99.99,,,0.00,0,weatherlink.com 1.10,2013-07-15 09:33:00,
2013-07-15 04:48:00,68.9,67.0,30.12,ENE,57,0.0,-999.0,94,-99.99,,,0.00,0,weatherlink.com 1.10,2013-07-15 09:48:00,
2013-07-15 05:03:00,68.9,67.0,30.12,ENE,57,0.0,-999.0,94,-99.99,,,0.00,0,weatherlink.com 1.10,2013-07-15 10:03:00,
2013-07-15 05:18:00,69.1,67.0,30.13,ENE,57,0.0,-999.0,94,-99.99,,,0.00,0,weatherlink.com 1.10,2013-07-15 10:18:00,
2013-07-15 05:33:00,69.1,68.0,30.13,ENE,57,0.0,-999.0,95,-99.99,,,0.00,0,weatherlink.com 1.10,2013-07-15 10:33:00,
2013-07-15 05:48:00,68.8,67.0,30.14,ENE,57,0.0,-999.0,94,-99.99,,,0.00,7,weatherlink.com 1.10,2013-07-15 10:48:00,
2013-07-15 06:03:00,68.8,67.0,30.14,NE,52,3.0,-999.0,95,-99.99,,,0.00,19,weatherlink.com 1.10,2013-07-15 11:03:00,
2013-07-15 06:18:00,69.4,68.0,30.14,NE,52,0.0,-999.0,95,-99.99,,,0.00,40,weatherlink.com 1.10,2013-07-15 11:18:00,
2013-07-15 06:33:00,70.1,68.0,30.14,NE,55,2.0,-999.0,94,-99.99,,,0.00,69,weatherlink.com 1.10,2013-07-15 11:33:00,
2013-07-15 06:48:00,71.3,70.0,30.15,ENE,69,0.0,-999.0,94,-99.99,,,0.00,104,weatherlink.com 1.10,2013-07-15 11:48:00,
2013-07-15 07:03:00,72.1,70.0,30.15,ENE,68,0.0,-999.0,93,-99.99,,,0.00,149,weatherlink.com 1.10,2013-07-15 12:03:00,
2013-07-15 07:18:00,73.3,71.0,30.16,ENE,72,0.0,-999.0,93,-99.99,,,0.00,188,weatherlink.com 1.10,2013-07-15 12:18:00,
2013-07-15 07:34:00,74.2,72.0,30.16,ENE,67,0.0,-999.0,91,-99.99,,,0.00,279,weatherlink.com 1.10,2013-07-15 12:34:00,
2013-07-15 07:49:00,74.9,72.0,30.16,ENE,71,0.0,-999.0,90,-99.99,,,0.00,274,weatherlink.com 1.10,2013-07-15 12:49:00,
2013-07-15 08:04:00,75.1,72.0,30.17,ENE,72,2.0,-999.0,89,-99.99,,,0.00,209,weatherlink.com 1.10,2013-07-15 13:04:00,
2013-07-15 08:19:00,77.9,74.0,30.17,East,86,5.0,-999.0,87,-99.99,,,0.00,376,weatherlink.com 1.10,2013-07-15 13:19:00,
2013-07-15 08:34:00,79.9,74.0,30.17,East,90,3.0,-999.0,82,-99.99,,,0.00,417,weatherlink.com 1.10,2013-07-15 13:34:00,
2013-07-15 08:49:00,80.9,74.0,30.17,NE,52,0.0,-999.0,79,-99.99,,,0.00,461,weatherlink.com 1.10,2013-07-15 13:49:00,
2013-07-15 09:04:00,81.8,75.0,30.17,ENE,67,3.0,-999.0,79,-99.99,,,0.00,538,weatherlink.com 1.10,2013-07-15 14:04:00,
2013-07-15 09:19:00,82.4,75.0,30.17,East,79,0.0,-999.0,77,-99.99,,,0.00,260,weatherlink.com 1.10,2013-07-15 14:19:00,
2013-07-15 09:34:00,81.2,74.0,30.17,East,96,1.0,-999.0,78,-99.99,,,0.00,257,weatherlink.com 1.10,2013-07-15 14:34:00,
2013-07-15 09:49:00,82.4,75.0,30.17,East,81,3.0,-999.0,79,-99.99,,,0.00,816,weatherlink.com 1.10,2013-07-15 14:49:00,
2013-07-15 10:04:00,83.4,76.0,30.17,East,92,3.0,-999.0,77,-99.99,,,0.00,879,weatherlink.com 1.10,2013-07-15 15:04:00,
2013-07-15 10:34:00,83.2,75.0,30.17,East,84,4.0,-999.0,76,-99.99,,,0.00,339,weatherlink.com 1.10,2013-07-15 15:34:00,
2013-07-15 10:49:00,83.8,76.0,30.17,East,92,0.0,-999.0,77,-99.99,,,0.00,615,weatherlink.com 1.10,2013-07-15 15:49:00,
2013-07-15 11:04:00,84.1,75.0,30.17,ESE,103,2.0,-999.0,73,-99.99,,,0.00,429,weatherlink.com 1.10,2013-07-15 16:04:00,
2013-07-15 11:19:00,85.1,76.0,30.17,ESE,108,0.0,-999.0,74,-99.99,,,0.00,766,weatherlink.com 1.10,2013-07-15 16:19:00,
2013-07-15 11:34:00,86.5,74.0,30.17,East,86,2.0,-999.0,67,-99.99,,,0.00,840,weatherlink.com 1.10,2013-07-15 16:34:00,
2013-07-15 11:49:00,87.0,74.0,30.16,East,87,3.0,-999.0,66,-99.99,,,0.00,846,weatherlink.com 1.10,2013-07-15 16:49:00,
2013-07-15 12:19:00,86.3,73.0,30.17,SE,131,5.0,-999.0,65,-99.99,,,0.00,320,weatherlink.com 1.10,2013-07-15 17:19:00,
2013-07-15 12:34:00,85.5,73.0,30.17,ESE,104,0.0,-999.0,67,-99.99,,,0.00,338,weatherlink.com 1.10,2013-07-15 17:34:00,
2013-07-15 12:49:00,87.0,74.0,30.16,ESE,111,0.0,-999.0,65,-99.99,,,0.00,302,weatherlink.com 1.10,2013-07-15 17:49:00,
2013-07-15 13:04:00,86.5,74.0,30.16,NE,42,0.0,-999.0,67,-99.99,,,0.00,1055,weatherlink.com 1.10,2013-07-15 18:04:00,
2013-07-15 13:19:00,88.6,75.0,30.16,ENE,70,3.0,-999.0,64,-99.99,,,0.00,1090,weatherlink.com 1.10,2013-07-15 18:19:00,
2013-07-15 14:04:00,87.0,74.0,30.15,East,92,2.0,-999.0,65,-99.99,,,0.00,183,weatherlink.com 1.10,2013-07-15 19:04:00,
2013-07-15 14:34:00,86.1,74.0,30.14,SE,142,3.0,-999.0,68,-99.99,,,0.00,295,weatherlink.com 1.10,2013-07-15 19:34:00,
2013-07-15 15:04:00,88.6,75.0,30.13,South,173,0.0,-999.0,65,-99.99,,,0.00,838,weatherlink.com 1.10,2013-07-15 20:04:00,
2013-07-15 15:19:00,89.5,75.0,30.13,East,92,5.0,-999.0,62,-99.99,,,0.00,930,weatherlink.com 1.10,2013-07-15 20:19:00,
2013-07-15 15:49:00,85.7,74.0,30.13,East,80,4.0,-999.0,67,-99.99,,,0.00,135,weatherlink.com 1.10,2013-07-15 20:49:00,
2013-07-15 16:19:00,88.8,76.0,30.12,East,83,5.0,-999.0,66,-99.99,,,0.00,722,weatherlink.com 1.10,2013-07-15 21:19:00,
2013-07-15 16:35:00,87.4,76.0,30.12,East,87,6.0,-999.0,68,-99.99,,,0.00,670,weatherlink.com 1.10,2013-07-15 21:35:00,
2013-07-15 16:49:00,87.0,75.0,30.12,East,89,3.0,-999.0,68,-99.99,,,0.00,221,weatherlink.com 1.10,2013-07-15 21:49:00,
2013-07-15 17:04:00,87.6,75.0,30.11,ENE,78,4.0,-999.0,67,-99.99,,,0.00,506,weatherlink.com 1.10,2013-07-15 22:04:00,
2013-07-15 17:34:00,85.9,76.0,30.11,East,92,4.0,-999.0,71,-99.99,,,0.00,406,weatherlink.com 1.10,2013-07-15 22:34:00,
2013-07-15 17:50:00,86.3,76.0,30.11,ESE,102,4.0,-999.0,72,-99.99,,,0.00,369,weatherlink.com 1.10,2013-07-15 22:50:00,
2013-07-15 18:20:00,85.9,75.0,30.10,East,80,3.0,-999.0,70,-99.99,,,0.00,274,weatherlink.com 1.10,2013-07-15 23:20:00,
2013-07-15 18:35:00,85.7,74.0,30.11,East,86,4.0,-999.0,69,-99.99,,,0.00,236,weatherlink.com 1.10,2013-07-15 23:35:00,
2013-07-15 18:50:00,85.5,75.0,30.10,East,98,3.0,-999.0,70,-99.99,,,0.00,202,weatherlink.com 1.10,2013-07-15 23:50:00,
2013-07-15 19:05:00,84.9,75.0,30.11,East,94,3.0,-999.0,71,-99.99,,,0.00,165,weatherlink.com 1.10,2013-07-16 00:05:00,
2013-07-15 19:20:00,84.5,75.0,30.11,East,86,3.0,-999.0,72,-99.99,,,0.00,120,weatherlink.com 1.10,2013-07-16 00:20:00,
2013-07-15 19:35:00,83.8,75.0,30.11,East,89,2.0,-999.0,75,-99.99,,,0.00,47,weatherlink.com 1.10,2013-07-16 00:35:00,
2013-07-15 19:50:00,83.0,75.0,30.11,East,98,0.0,-999.0,76,-99.99,,,0.00,40,weatherlink.com 1.10,2013-07-16 00:50:00,
2013-07-15 20:20:00,81.1,74.0,30.11,ESE,112,0.0,-999.0,79,-99.99,,,0.00,19,weatherlink.com 1.10,2013-07-16 01:20:00,
2013-07-15 20:35:00,80.3,74.0,30.11,ESE,112,0.0,-999.0,81,-99.99,,,0.00,11,weatherlink.com 1.10,2013-07-16 01:35:00,
2013-07-15 20:50:00,79.6,74.0,30.11,ESE,112,0.0,-999.0,82,-99.99,,,0.00,0,weatherlink.com 1.10,2013-07-16 01:50:00,
2013-07-15 21:05:00,78.3,73.0,30.11,ESE,112,0.0,-999.0,84,-99.99,,,0.00,0,weatherlink.com 1.10,2013-07-16 02:05:00,
2013-07-15 21:20:00,77.6,73.0,30.12,ESE,112,0.0,-999.0,85,-99.99,,,0.00,0,weatherlink.com 1.10,2013-07-16 02:20:00,
2013-07-15 21:35:00,77.0,73.0,30.12,ESE,112,0.0,-999.0,87,-99.99,,,0.00,0,weatherlink.com 1.10,2013-07-16 02:35:00,
2013-07-15 21:50:00,76.7,73.0,30.13,ESE,112,0.0,-999.0,88,-99.99,,,0.00,0,weatherlink.com 1.10,2013-07-16 02:50:00,
2013-07-15 22:05:00,76.7,73.0,30.13,ESE,113,0.0,-999.0,88,-99.99,,,0.00,0,weatherlink.com 1.10,2013-07-16 03:05:00,
2013-07-15 22:20:00,76.7,73.0,30.13,ESE,113,0.0,-999.0,88,-99.99,,,0.00,0,weatherlink.com 1.10,2013-07-16 03:20:00,
2013-07-15 22:50:00,75.1,72.0,30.15,ENE,78,0.0,-999.0,90,-99.99,,,0.00,0,weatherlink.com 1.10,2013-07-16 03:50:00,
2013-07-15 23:05:00,76.0,73.0,30.15,SE,140,4.0,-999.0,91,-99.99,,,0.00,0,weatherlink.com 1.10,2013-07-16 04:05:00,
2013-07-15 23:20:00,76.0,73.0,30.15,SSE,159,0.0,-999.0,90,-99.99,,,0.00,0,weatherlink.com 1.10,2013-07-16 04:20:00,
2013-07-15 23:35:00,76.0,73.0,30.16,SSE,158,0.0,-999.0,90,-99.99,,,0.00,0,weatherlink.com 1.10,2013-07-16 04:35:00,
2013-07-15 23:50:00,76.0,73.0,30.16,SSE,158,0.0,-999.0,90,-99.99,,,0.00,0,weatherlink.com 1.10,2013-07-16 04:50:00,